Location: Unspecified
(0.0000°N, 0.0000°E)
Time: 21:09:29
(UTC+02:00)

Cosmos 1954 Rocket - Visible Passes

Search period start: 01 September 2014 00:00
Search period end: 11 September 2014 00:00
Orbit: 754 x 782 km, 74.0° (Epoch: 31 August)

Date Brightness Start Highest point End Pass type
(mag) Time Alt. Az. Time Alt. Az. Time Alt. Az.
04 Sep 6.3 21:47:21 10° S 21:47:43 12° S 21:47:43 12° S visible
05 Sep 5.0 21:11:00 10° SSE 21:14:01 26° SE 21:14:01 26° SE visible
06 Sep 5.4 20:35:38 10° SE 20:38:41 16° ESE 20:41:42 10° ENE visible
06 Sep 5.7 22:15:59 10° SW 22:20:27 29° WNW 22:23:17 18° NNW visible
07 Sep 4.4 21:38:24 10° SSW 21:43:33 61° WNW 21:48:38 10° N visible
08 Sep 3.9 21:01:28 10° S 21:06:38 65° ESE 21:11:44 10° NNE visible
09 Sep 4.7 20:25:09 10° SSE 20:29:42 31° ESE 20:34:13 10° NE visible
09 Sep 6.9 22:08:41 10° WSW 22:11:28 15° WNW 22:14:13 10° NW visible
10 Sep 5.9 21:30:03 10° SW 21:34:32 30° WNW 21:39:00 10° NNW visible
